Showing default

FLOCK 4H 2, 66705

Orbit data source: Space-Track

FLOCK 4H 2, 66705 is a payload satellite owned by Planet (US) in SSO that was launched on Fri, 28 Nov 2025 UTC via an FALCON 9 launch vehicle from the Air Force Western Test Range (AFWTR). Payload-class satellites include a variety of spacecraft equipped with specific instruments for various scientific and technological missions. These include communications satellites like Starlink; space stations such as the ISS; scientific satellites like the Hubble; Earth observation satellites from companies like Planet Labs, Umbra, and HawkEye 360; GPS; miniature CubeSats for education and research; and military/defense satellites.

Loading next visibility...
Identifier
66705, 2025-276AR
Orbit
SSO
Country
Flag of USUS
Related business
Manufacturer
Planet
Mission
Operational Commercial Imaging
Bus & Motor
CUBESAT 3U, Unknown motor
Mass
5.7 kg wet, 5.7 kg dry
Launch date (UTC)
2025-11-28 (2 months ago)
Launch vehicle
FALCON 9
Launch site
Air Force Western Test Range (AFWTR)
Object type
Payload
Rocket body
Debris
Shape & HBR
Box + 2 Pan, 1.0 m
Radar Cross Section
0.072 m²

Expand to show TLE details & history
Last TLE update: 6 hours ago

TLE from 6 hours ago
0 FLOCK 4H 2
1 66705U 25276AR  26035.17694190  .00008351  00000-0  40271-3 0  9993
2 66705  97.4308 111.0519 0002749  80.4271 279.7274 15.18950075 10234
Epoch: 2026-02-04T04:14Z
TLE epoch observation values (Epoch: 2026-02-04T04:14:47.780Z)
Latitude
-0.00001°
Longitude
-86.99445°
Altitude
511.781 km
Speed
7.608 km/s
True Right ascension
07h 24m 12s
True Declination
0° 00' 00"
Sunlit
Object was in full shadow at epoch
Visualization orbit readout
Latitude
Unknown
Longitude
Unknown
Altitude
Unknown
Speed
Unknown
Apparent Right ascension
Unknown
Apparent Declination
Unknown
Sunlit
N/A
Visualization observer readout
Local Sidereal Time
11:54:47
Azimuth
Unknown
Elevation
Unknown
Doppler factor
Unknown
Orbital elements
Apogee altitude
507.873 km
Perigee altitude
504.088 km
Semi-major axis
6,884.118 km
Eccentricity
0.00027
Inclination
97.4308°
RAAN
111.0519°
Arg. of periapsis
80.4271°
True anomaly
279.69635°
Mean anomaly
279.7274°
Eccentric anomaly
279.71188°
Mean motion
3.79989 °/min
Orbital period
94.74 mins
BSTAR
0.00040271
Loading maneuver chart data...
Computing Atmospheric mass density...
Loading historical data...
Loading historical data...
Loading historical data...
Loading historical data...
Loading historical data...
Loading historical data...
Loading historical data...

Documentation

Showing up to 5 results
|